Time,TemperatureF,DewpointF,PressureIn,WindDirection,WindDirectionDegrees,WindSpeedMPH,WindSpeedGustMPH,Humidity,HourlyPrecipIn,Conditions,Clouds,dailyrainin,SoftwareType,DateUTC
2013-01-02 00:00:00,36.5,27.4,30.10,WNW,292,3.8,4.4,69,0.00,,,0.00,tws,2013-01-02 07:00:00,
2013-01-02 00:10:00,36.9,27.5,30.09,West,270,3.8,4.3,68,0.00,,,0.00,tws,2013-01-02 07:10:00,
2013-01-02 00:20:00,37.4,27.8,30.10,NW,315,4.0,4.7,67,0.00,,,0.00,tws,2013-01-02 07:20:00,
2013-01-02 00:30:00,37.8,27.9,30.10,NW,315,1.4,2.3,67,0.00,,,0.00,tws,2013-01-02 07:30:00,
2013-01-02 00:40:00,37.6,27.9,30.10,NNW,337,1.2,2.2,67,0.00,,,0.00,tws,2013-01-02 07:40:00,
2013-01-02 00:50:00,37.1,27.5,30.09,West,270,2.4,4.3,67,0.00,,,0.00,tws,2013-01-02 07:50:00,
2013-01-02 01:00:00,36.7,27.2,30.09,WNW,292,5.3,7.4,68,0.00,,,0.00,tws,2013-01-02 08:00:00,
2013-01-02 01:10:00,37.1,27.3,30.08,WSW,247,5.0,5.9,67,0.00,,,0.00,tws,2013-01-02 08:10:00,
2013-01-02 01:20:00,37.6,27.7,30.08,WSW,247,6.1,7.1,67,0.00,,,0.00,tws,2013-01-02 08:20:00,
2013-01-02 01:30:00,38.0,27.7,30.07,NW,315,5.4,6.5,66,0.00,,,0.00,tws,2013-01-02 08:30:00,
2013-01-02 01:40:00,38.3,27.7,30.07,NW,315,5.0,6.0,65,0.00,,,0.00,tws,2013-01-02 08:40:00,
2013-01-02 01:50:00,38.4,27.5,30.06,WNW,292,4.4,6.1,64,0.00,,,0.00,tws,2013-01-02 08:50:00,
2013-01-02 02:00:00,38.3,27.4,30.06,WNW,292,4.0,5.4,64,0.00,,,0.00,tws,2013-01-02 09:00:00,
2013-01-02 02:10:00,38.0,27.1,30.06,NW,315,3.5,4.7,64,0.00,,,0.00,tws,2013-01-02 09:10:00,
2013-01-02 02:20:00,37.5,26.8,30.06,NW,315,2.4,3.1,64,0.00,,,0.00,tws,2013-01-02 09:20:00,
2013-01-02 02:30:00,36.9,26.4,30.06,North,0,2.7,4.0,65,0.00,,,0.00,tws,2013-01-02 09:30:00,
2013-01-02 02:40:00,36.3,26.1,30.05,NW,315,2.7,3.6,66,0.00,,,0.00,tws,2013-01-02 09:40:00,
2013-01-02 02:50:00,35.8,26.0,30.05,NW,315,3.7,4.3,67,0.00,,,0.00,tws,2013-01-02 09:50:00,
2013-01-02 03:00:00,35.3,25.8,30.05,West,270,3.9,4.6,68,0.00,,,0.00,tws,2013-01-02 10:00:00,
2013-01-02 03:10:00,35.1,25.8,30.05,NW,315,4.2,5.7,68,0.00,,,0.00,tws,2013-01-02 10:10:00,
2013-01-02 03:20:00,35.4,26.1,30.04,NNW,337,4.0,5.4,68,0.00,,,0.00,tws,2013-01-02 10:20:00,
2013-01-02 03:30:00,35.7,26.3,30.04,NNW,337,3.6,4.4,68,0.00,,,0.00,tws,2013-01-02 10:30:00,
2013-01-02 03:40:00,36.0,26.6,30.05,NW,315,3.5,4.9,68,0.00,,,0.00,tws,2013-01-02 10:40:00,
2013-01-02 03:50:00,36.0,26.4,30.04,SW,225,4.2,6.1,67,0.00,,,0.00,tws,2013-01-02 10:50:00,
2013-01-02 04:00:00,36.1,26.5,30.05,WNW,292,3.7,5.9,67,0.00,,,0.00,tws,2013-01-02 11:00:00,
2013-01-02 04:10:00,36.3,26.5,30.04,NW,315,3.7,4.5,67,0.00,,,0.00,tws,2013-01-02 11:10:00,
2013-01-02 04:20:00,36.0,26.2,30.04,NW,315,3.9,5.0,67,0.00,,,0.00,tws,2013-01-02 11:20:00,
2013-01-02 04:30:00,35.9,26.1,30.04,NNW,337,4.5,5.9,67,0.00,,,0.00,tws,2013-01-02 11:30:00,
2013-01-02 04:40:00,36.0,26.1,30.05,NW,315,4.0,5.5,67,0.00,,,0.00,tws,2013-01-02 11:40:00,
2013-01-02 04:50:00,35.9,26.0,30.05,NW,315,2.5,3.7,66,0.00,,,0.00,tws,2013-01-02 11:50:00,
2013-01-02 05:00:00,35.4,25.6,30.04,NW,315,0.3,1.4,67,0.00,,,0.00,tws,2013-01-02 12:00:00,
2013-01-02 05:10:00,34.9,25.3,30.04,WNW,292,0.8,3.3,67,0.00,,,0.00,tws,2013-01-02 12:10:00,
2013-01-02 05:20:00,34.4,25.0,30.03,NW,315,2.9,3.5,68,0.00,,,0.00,tws,2013-01-02 12:20:00,
2013-01-02 05:30:00,33.9,24.9,30.04,WNW,292,3.7,4.6,69,0.00,,,0.00,tws,2013-01-02 12:30:00,
2013-01-02 05:40:00,33.7,25.0,30.05,West,270,4.6,5.8,70,0.00,,,0.00,tws,2013-01-02 12:40:00,
2013-01-02 05:50:00,33.9,25.2,30.05,NNW,337,4.2,5.9,70,0.00,,,0.00,tws,2013-01-02 12:50:00,
2013-01-02 06:00:00,34.2,25.6,30.03,NW,315,3.6,4.7,70,0.00,,,0.00,tws,2013-01-02 13:00:00,
2013-01-02 06:10:00,34.2,25.6,30.03,NW,315,3.2,4.0,70,0.00,,,0.00,tws,2013-01-02 13:10:00,
2013-01-02 06:20:00,34.1,25.5,30.03,NW,315,3.0,3.9,70,0.00,,,0.00,tws,2013-01-02 13:20:00,
2013-01-02 06:30:00,33.9,25.3,30.03,North,0,2.7,3.7,70,0.00,,,0.00,tws,2013-01-02 13:30:00,
2013-01-02 06:40:00,33.6,25.2,30.04,North,0,2.4,3.4,71,0.00,,,0.00,tws,2013-01-02 13:40:00,
2013-01-02 06:50:00,33.3,25.0,30.05,NW,315,3.5,3.9,71,0.00,,,0.00,tws,2013-01-02 13:50:00,
2013-01-02 07:10:00,32.6,24.7,30.04,NW,315,4.1,5.9,72,0.00,,,0.00,tws,2013-01-02 14:10:00,
2013-01-02 07:20:00,32.5,24.7,30.05,NW,315,5.2,5.8,72,0.00,,,0.00,tws,2013-01-02 14:20:00,
2013-01-02 07:30:00,32.8,25.1,30.04,NW,315,6.4,8.1,73,0.00,,,0.00,tws,2013-01-02 14:30:00,
2013-01-02 07:40:00,33.8,25.9,30.04,NW,315,5.4,7.4,72,0.00,,,0.00,tws,2013-01-02 14:40:00,
2013-01-02 07:50:00,34.6,26.3,30.04,West,270,5.1,6.4,71,0.00,,,0.00,tws,2013-01-02 14:50:00,
2013-01-02 08:00:00,35.1,26.4,30.05,North,0,5.5,7.8,70,0.00,,,0.00,tws,2013-01-02 15:00:00,
2013-01-02 08:10:00,35.5,26.6,30.05,NW,315,4.9,6.3,69,0.00,,,0.00,tws,2013-01-02 15:10:00,
2013-01-02 08:20:00,35.8,26.8,30.05,NW,315,4.0,4.9,69,0.00,,,0.00,tws,2013-01-02 15:20:00,
2013-01-02 08:30:00,36.4,27.0,30.05,NW,315,4.5,6.1,68,0.00,,,0.00,tws,2013-01-02 15:30:00,
2013-01-02 08:40:00,37.3,27.6,30.04,NW,315,5.1,6.7,67,0.00,,,0.00,tws,2013-01-02 15:40:00,
2013-01-02 08:50:00,38.3,28.5,30.06,ENE,67,2.5,4.1,67,0.00,,,0.00,tws,2013-01-02 15:50:00,
2013-01-02 09:00:00,39.2,28.9,30.06,NE,45,3.3,5.0,66,0.00,,,0.00,tws,2013-01-02 16:00:00,
2013-01-02 09:10:00,39.7,29.1,30.06,NW,315,3.9,4.6,65,0.00,,,0.00,tws,2013-01-02 16:10:00,
2013-01-02 09:20:00,40.4,29.7,30.05,NW,315,4.1,5.0,65,0.00,,,0.00,tws,2013-01-02 16:20:00,
2013-01-02 09:30:00,41.5,30.3,30.05,West,270,3.9,5.8,64,0.00,,,0.00,tws,2013-01-02 16:30:00,
2013-01-02 09:40:00,42.8,30.5,30.05,NW,315,3.6,6.5,61,0.00,,,0.00,tws,2013-01-02 16:40:00,
2013-01-02 09:50:00,44.0,30.8,30.06,West,270,4.5,6.9,59,0.00,,,0.00,tws,2013-01-02 16:50:00,
2013-01-02 10:00:00,45.4,30.8,30.05,NW,315,2.5,3.4,56,0.00,,,0.00,tws,2013-01-02 17:00:00,
2013-01-02 10:10:00,47.1,31.4,30.06,West,270,2.5,5.1,53,0.00,,,0.00,tws,2013-01-02 17:10:00,
2013-01-02 10:20:00,49.5,32.4,30.06,NW,315,2.7,4.1,51,0.00,,,0.00,tws,2013-01-02 17:20:00,
2013-01-02 10:30:00,51.2,33.0,30.05,NW,315,2.5,4.5,49,0.00,,,0.00,tws,2013-01-02 17:30:00,
2013-01-02 10:40:00,52.0,32.2,30.05,WNW,292,3.6,5.1,46,0.00,,,0.00,tws,2013-01-02 17:40:00,
2013-01-02 10:50:00,51.9,31.1,30.05,NW,315,3.1,4.6,44,0.00,,,0.00,tws,2013-01-02 17:50:00,
2013-01-02 11:00:00,51.2,30.1,30.05,SSE,157,3.4,4.9,44,0.00,,,0.00,tws,2013-01-02 18:00:00,
2013-01-02 11:10:00,50.7,30.1,30.05,West,270,2.0,3.3,44,0.00,,,0.00,tws,2013-01-02 18:10:00,
2013-01-02 11:20:00,50.7,30.3,30.05,SSE,157,2.1,3.5,45,0.00,,,0.00,tws,2013-01-02 18:20:00,
2013-01-02 11:30:00,50.9,29.7,30.05,SE,135,3.7,5.8,43,0.00,,,0.00,tws,2013-01-02 18:30:00,
2013-01-02 11:40:00,51.0,29.6,30.03,North,0,1.7,3.0,43,0.00,,,0.00,tws,2013-01-02 18:40:00,
2013-01-02 11:50:00,51.3,29.8,30.03,SW,225,2.0,3.6,43,0.00,,,0.00,tws,2013-01-02 18:50:00,
2013-01-02 12:00:00,51.9,30.2,30.03,SE,135,2.2,4.5,43,0.00,,,0.00,tws,2013-01-02 19:00:00,
2013-01-02 12:10:00,52.7,30.4,30.03,WSW,247,2.1,2.8,42,0.00,,,0.00,tws,2013-01-02 19:10:00,
2013-01-02 12:20:00,53.2,30.5,30.02,NW,315,2.3,2.9,41,0.00,,,0.00,tws,2013-01-02 19:20:00,
2013-01-02 12:30:00,53.5,30.4,30.01,SE,135,2.3,4.1,40,0.00,,,0.00,tws,2013-01-02 19:30:00,
2013-01-02 12:40:00,53.8,30.3,30.01,West,270,1.9,2.9,40,0.00,,,0.00,tws,2013-01-02 19:40:00,
2013-01-02 12:50:00,54.1,30.7,29.99,NNW,337,2.6,3.7,40,0.00,,,0.00,tws,2013-01-02 19:50:00,
2013-01-02 13:00:00,54.5,30.8,29.99,SW,225,1.9,2.9,39,0.00,,,0.00,tws,2013-01-02 20:00:00,
2013-01-02 13:10:00,54.6,29.4,29.98,North,0,1.8,3.9,37,0.00,,,0.00,tws,2013-01-02 20:10:00,
2013-01-02 13:20:00,54.7,29.1,29.99,South,180,1.3,2.6,37,0.00,,,0.00,tws,2013-01-02 20:20:00,
2013-01-02 13:30:00,55.1,29.5,29.98,NE,45,2.3,3.3,37,0.00,,,0.00,tws,2013-01-02 20:30:00,
2013-01-02 13:40:00,55.8,29.5,29.97,NE,45,1.9,3.8,36,0.00,,,0.00,tws,2013-01-02 20:40:00,
2013-01-02 13:50:00,56.7,29.2,29.98,NE,45,2.1,3.2,34,0.00,,,0.00,tws,2013-01-02 20:50:00,
2013-01-02 14:00:00,57.4,30.2,29.98,WNW,292,4.9,6.6,35,0.00,,,0.00,tws,2013-01-02 21:00:00,
2013-01-02 14:10:00,57.6,30.5,29.97,SW,225,4.9,6.5,35,0.00,,,0.00,tws,2013-01-02 21:10:00,
2013-01-02 14:20:00,57.6,31.1,29.97,NW,315,3.8,4.7,36,0.00,,,0.00,tws,2013-01-02 21:20:00,
2013-01-02 14:30:00,58.1,31.5,29.97,WSW,247,4.3,5.1,36,0.00,,,0.00,tws,2013-01-02 21:30:00,
2013-01-02 14:40:00,58.5,31.8,29.96,SW,225,3.9,4.8,35,0.00,,,0.00,tws,2013-01-02 21:40:00,
2013-01-02 14:50:00,58.8,31.7,29.96,South,180,4.4,6.5,35,0.00,,,0.00,tws,2013-01-02 21:50:00,
2013-01-02 15:00:00,58.9,31.8,29.96,South,180,6.0,9.3,35,0.00,,,0.00,tws,2013-01-02 22:00:00,
2013-01-02 15:10:00,59.1,31.9,29.97,West,270,4.9,6.6,35,0.00,,,0.00,tws,2013-01-02 22:10:00,
2013-01-02 15:20:00,59.2,32.0,29.97,South,180,5.1,6.4,35,0.00,,,0.00,tws,2013-01-02 22:20:00,
2013-01-02 15:30:00,59.2,31.8,29.96,South,180,4.8,6.2,35,0.00,,,0.00,tws,2013-01-02 22:30:00,
2013-01-02 15:40:00,59.4,32.0,29.96,SW,225,4.2,5.3,35,0.00,,,0.00,tws,2013-01-02 22:40:00,
2013-01-02 15:50:00,59.9,32.2,29.96,South,180,4.5,6.4,34,0.00,,,0.00,tws,2013-01-02 22:50:00,
2013-01-02 16:00:00,60.5,32.5,29.96,South,180,3.6,5.2,34,0.00,,,0.00,tws,2013-01-02 23:00:00,
2013-01-02 16:10:00,60.7,32.0,29.97,SW,225,4.3,6.0,33,0.00,,,0.00,tws,2013-01-02 23:10:00,
2013-01-02 16:20:00,60.1,31.1,29.97,South,180,4.2,5.6,33,0.00,,,0.00,tws,2013-01-02 23:20:00,
2013-01-02 16:30:00,59.1,30.7,29.96,South,180,3.3,4.5,33,0.00,,,0.00,tws,2013-01-02 23:30:00,
2013-01-02 16:40:00,58.3,30.7,29.96,South,180,3.1,4.2,34,0.00,,,0.00,tws,2013-01-02 23:40:00,
2013-01-02 16:50:00,57.6,30.4,29.96,South,180,2.8,4.1,35,0.00,,,0.00,tws,2013-01-02 23:50:00,
2013-01-02 17:00:00,56.9,30.3,29.96,South,180,2.5,3.2,35,0.00,,,0.00,tws,2013-01-03 00:00:00,
2013-01-02 17:10:00,56.3,30.6,29.96,SSE,157,1.5,2.6,37,0.00,,,0.00,tws,2013-01-03 00:10:00,
2013-01-02 17:20:00,55.7,31.4,29.96,South,180,1.1,1.6,39,0.00,,,0.00,tws,2013-01-03 00:20:00,
2013-01-02 17:30:00,55.0,32.1,29.96,NNW,337,0.4,1.6,41,0.00,,,0.00,tws,2013-01-03 00:30:00,
2013-01-02 17:40:00,54.0,32.0,29.96,SW,225,0.0,0.0,42,0.00,,,0.00,tws,2013-01-03 00:40:00,
2013-01-02 17:50:00,52.9,31.8,29.96,NW,315,0.0,0.0,44,0.00,,,0.00,tws,2013-01-03 00:50:00,
2013-01-02 18:00:00,51.9,31.9,29.96,NW,315,0.0,0.0,46,0.00,,,0.00,tws,2013-01-03 01:00:00,
2013-01-02 18:10:00,50.9,31.8,29.97,North,0,0.0,0.4,47,0.00,,,0.00,tws,2013-01-03 01:10:00,
2013-01-02 18:20:00,50.1,31.6,29.96,NNW,337,1.9,2.3,48,0.00,,,0.00,tws,2013-01-03 01:20:00,
2013-01-02 18:30:00,49.4,31.0,29.97,NW,315,2.3,2.9,48,0.00,,,0.00,tws,2013-01-03 01:30:00,
2013-01-02 18:40:00,48.7,30.8,29.96,South,180,1.8,2.7,49,0.00,,,0.00,tws,2013-01-03 01:40:00,
2013-01-02 18:50:00,48.2,30.5,29.97,SW,225,1.3,2.2,49,0.00,,,0.00,tws,2013-01-03 01:50:00,
2013-01-02 19:00:00,47.9,30.7,29.97,WNW,292,3.0,4.3,51,0.00,,,0.00,tws,2013-01-03 02:00:00,
2013-01-02 19:10:00,47.6,29.7,29.97,WNW,292,4.7,6.0,49,0.00,,,0.00,tws,2013-01-03 02:10:00,
2013-01-02 19:20:00,47.6,29.1,29.97,WSW,247,4.9,5.2,48,0.00,,,0.00,tws,2013-01-03 02:20:00,
2013-01-02 19:30:00,47.6,28.6,29.98,SW,225,5.2,5.7,47,0.00,,,0.00,tws,2013-01-03 02:30:00,
2013-01-02 19:40:00,47.7,28.4,29.98,WSW,247,5.4,6.4,46,0.00,,,0.00,tws,2013-01-03 02:40:00,
2013-01-02 19:50:00,47.6,27.9,29.98,WNW,292,6.6,7.6,45,0.00,,,0.00,tws,2013-01-03 02:50:00,
2013-01-02 20:00:00,47.6,27.7,29.98,WNW,292,5.9,7.7,45,0.00,,,0.00,tws,2013-01-03 03:00:00,
2013-01-02 20:10:00,47.4,27.5,29.98,NW,315,6.0,6.9,45,0.00,,,0.00,tws,2013-01-03 03:10:00,
2013-01-02 20:20:00,47.2,27.5,29.98,West,270,5.7,6.7,45,0.00,,,0.00,tws,2013-01-03 03:20:00,
2013-01-02 20:30:00,46.9,27.1,29.98,West,270,6.3,7.5,45,0.00,,,0.00,tws,2013-01-03 03:30:00,
2013-01-02 20:50:00,46.5,26.8,29.99,West,270,5.0,5.7,45,0.00,,,0.00,tws,2013-01-03 03:50:00,
2013-01-02 21:00:00,46.4,26.8,29.99,NW,315,4.7,5.7,46,0.00,,,0.00,tws,2013-01-03 04:00:00,
2013-01-02 21:10:00,46.1,26.7,29.99,NNW,337,3.2,4.6,46,0.00,,,0.00,tws,2013-01-03 04:10:00,
2013-01-02 21:20:00,45.6,26.5,29.99,NW,315,3.2,4.5,46,0.00,,,0.00,tws,2013-01-03 04:20:00,
2013-01-02 21:30:00,45.0,26.6,29.99,NW,315,3.4,4.2,48,0.00,,,0.00,tws,2013-01-03 04:30:00,
2013-01-02 21:40:00,44.5,26.1,29.99,NW,315,4.7,5.6,48,0.00,,,0.00,tws,2013-01-03 04:40:00,
2013-01-02 21:50:00,44.4,26.0,30.00,NW,315,5.7,6.8,48,0.00,,,0.00,tws,2013-01-03 04:50:00,
2013-01-02 22:10:00,44.6,26.2,30.00,North,0,3.2,4.0,48,0.00,,,0.00,tws,2013-01-03 05:10:00,
2013-01-02 22:20:00,44.0,26.4,30.00,NW,315,3.2,4.1,49,0.00,,,0.00,tws,2013-01-03 05:20:00,
2013-01-02 22:30:00,43.2,26.3,30.00,NW,315,2.3,3.1,50,0.00,,,0.00,tws,2013-01-03 05:30:00,
2013-01-02 22:40:00,42.6,26.2,30.01,West,270,3.8,4.9,52,0.00,,,0.00,tws,2013-01-03 05:40:00,
2013-01-02 22:50:00,42.1,25.9,30.00,West,270,4.2,5.1,52,0.00,,,0.00,tws,2013-01-03 05:50:00,
2013-01-02 23:00:00,42.4,26.0,30.01,West,270,6.1,7.9,51,0.00,,,0.00,tws,2013-01-03 06:00:00,
2013-01-02 23:10:00,43.0,26.2,30.01,WNW,292,5.8,8.1,51,0.00,,,0.00,tws,2013-01-03 06:10:00,
2013-01-02 23:20:00,43.3,26.2,30.01,NW,315,5.0,6.5,50,0.00,,,0.00,tws,2013-01-03 06:20:00,
2013-01-02 23:30:00,43.2,26.2,30.00,WNW,292,4.9,5.5,50,0.00,,,0.00,tws,2013-01-03 06:30:00,
2013-01-02 23:40:00,43.0,25.9,30.00,WNW,292,4.9,6.3,50,0.00,,,0.00,tws,2013-01-03 06:40:00,
2013-01-02 23:50:00,42.9,25.6,29.99,WNW,292,5.6,7.1,50,0.00,,,0.00,tws,2013-01-03 06:50:00,